Flag for Germany Weather past 2 weeks in Cuxhaven, Lower Saxony, Germany

Now
45 °F

Passing clouds.


Feels Like: 40 °F
Forecast: 39 / 48 °F
Wind: 9 mph from Southwest

Location: Nordholz

Current Time: Mar 6, 2015 at 10:07:38 PM

Latest Report: Mar 6, 2015 at 9:20 PM


Visibility: N/A

Pressure: 30.45 "Hg

Humidity: 71%

Dew point: 36 °F

Location of CuxhavenLocation

Historic Weather in Cuxhaven — Graph

°F

Cuxhaven temperature yesterday

Maximum temperature yesterday: 45 °F (at 1:20 PM)
Minimum temperature yesterday: 37 °F (at 1:20 AM)
Average temperature yesterday: 41 °F

Past Weeks' High & Low Weather Summary

 TemperatureHumidityPressure
High46 °F (Feb 26, 1:20 PM)100% (Feb 20, 9:20 PM)30.54 "Hg (Feb 20, 9:20 PM)
Low30 °F (Feb 28, 5:20 AM)57% (Feb 28, 4:20 PM)29.24 "Hg (Feb 21, 8:20 AM)
Average39 °F85%29.80 "Hg
* Reported Feb 19 8:20 PM — Mar 6 8:20 PM, Cuxhaven, Weather by CustomWeather, © 2015

Note: Actual official high and low records may vary slightly from our data, if they occured in-between our weather recording intervals... More about our weather records

Advertising

Cuxhaven weather history for previous 24 hours

 ConditionsComfort  
Time TempWeatherWind HumidityBarometerVisibility
8:20 PM
Fri, Mar 6
45 °FPassing clouds.12 mph71%30.45 "HgN/A
7:20 PM45 °FPassing clouds.9 mph76%30.48 "HgN/A
6:20 PM45 °FPassing clouds.5 mph81%30.48 "HgN/A
5:20 PM46 °FPartly sunny.10 mph76%30.45 "HgN/A
4:20 PM46 °FPartly sunny.13 mph71%30.45 "HgN/A
3:20 PM46 °FPartly sunny.9 mph76%30.48 "HgN/A
2:20 PM46 °FPartly sunny.12 mph76%30.48 "HgN/A
1:20 PM46 °FPartly sunny.13 mph76%30.48 "HgN/A
12:20 PM46 °FPartly sunny.13 mph76%30.48 "HgN/A
11:20 AM45 °FPartly sunny.15 mph81%30.51 "HgN/A
10:20 AM45 °FPartly sunny.14 mph81%30.48 "HgN/A
9:20 AM45 °FPartly sunny.13 mph81%30.48 "HgN/A
8:20 AM43 °FPartly sunny.13 mph81%30.48 "HgN/A
7:20 AM41 °FPartly sunny.12 mph87%30.48 "HgN/A
6:20 AM41 °FPassing clouds.10 mph87%30.48 "HgN/A
5:20 AM41 °FPassing clouds.12 mph87%30.48 "HgN/A
4:20 AM41 °FPassing clouds.10 mph87%30.48 "HgN/A
3:20 AM41 °FPassing clouds.10 mph87%30.48 "HgN/A
2:20 AM41 °FOvercast.9 mph87%30.51 "HgN/A
1:20 AM41 °FOvercast.10 mph87%30.51 "HgN/A
12:20 AM41 °FLight rain. Mostly cloudy.12 mph87%30.51 "HgN/A
11:20 PM
Thu, Mar 5
41 °FOvercast.10 mph87%30.51 "HgN/A
10:20 PM41 °FPassing clouds.12 mph87%30.54 "HgN/A
Weather by CustomWeather, © 2015

See weather overviewHow to use our weather pages